Portsmouth, NH

4:39 PM EDT on August 29, 2016 (GMT -0400)
Pease International Tradeport

Weather History for KPSM - March, 2013

Change the Weather History Date:

Monday, March 4, 2013

  Actual Average Record
Temperature  
Mean Temperature 33 °F -  
Max Temperature 37 °F 37 °F 68 °F (1974)
Min Temperature 29 °F 22 °F -6 °F (1982)
Degree Days  
Heating Degree Days 32    
Moisture  
Dew Point 22 °F    
Average Humidity 63    
Maximum Humidity 69    
Minimum Humidity 56    
Precipitation  
Precipitation 0.00 in - - ()
Sea Level Pressure  
Sea Level Pressure 29.59 in    
Wind  
Wind Speed 13 mph (WNW)    
Max Wind Speed 22 mph    
Max Gust Speed 30 mph    
Visibility 10 miles    
Events Rain , Snow    
Averages and records for this station are not official NWS values.
T = Trace of Precipitation, MM = Missing Value Source: NWS Daily Summary

Daily Weather History Graph

Daily Weather History Graph

Search for Another Location

Airport or City:

Trip Planner

Search our weather history database for the weather conditions in past years. The results will help you decide how hot, cold, wet, or windy it might be!

Date:

Astronomy

Mar. 04, 2013 Rise Set
Actual Time 6:13 AM EST 5:36 PM EST
Civil Twilight 5:45 AM EST 6:04 PM EST
Nautical Twilight 5:12 AM EST 6:37 PM EST
Astronomical Twilight 4:39 AM EST 7:10 PM EST
Moon 12:26 AM EST (3/4) 10:08 AM EST (3/4)
Length of Visible Light 12h 19m
Length of Day
11h 22m
Waning Gibbous, 52% of the Moon is Illuminated
Mar 4
Waning Gibbous
Mar 4
Last Quarter
Mar 11
New
Mar 19
First Quarter
Mar 27
Full

Hourly Weather History & Observations

Time (EST) Temp. Windchill Dew Point Humidity Pressure Visibility Wind Dir Wind Speed Gust Speed Precip Events Conditions
12:55 AM 32.5 °F 24.2 °F 23.0 °F 68% 29.57 in 10.0 mi West 10.4 mph - N/A   Overcast
1:55 AM 32.2 °F 23.2 °F 22.8 °F 68% 29.57 in 10.0 mi WNW 11.5 mph - N/A   Overcast
2:55 AM 32.0 °F 23.6 °F 22.5 °F 68% 29.57 in 10.0 mi West 10.4 mph 19.6 mph N/A   Overcast
3:55 AM 31.3 °F 21.1 °F 22.1 °F 69% 29.57 in 10.0 mi West 13.8 mph - N/A   Overcast
4:55 AM 30.0 °F 20.5 °F 20.7 °F 68% 29.57 in 10.0 mi WNW 11.5 mph - N/A   Scattered Clouds
5:55 AM 29.3 °F 20.2 °F 19.6 °F 67% 29.58 in 10.0 mi WNW 10.4 mph - N/A   Scattered Clouds
6:55 AM 29.5 °F 19.3 °F 19.4 °F 66% 29.58 in 10.0 mi West 12.7 mph - N/A   Mostly Cloudy
7:55 AM 30.7 °F 22.0 °F 19.6 °F 63% 29.59 in 10.0 mi West 10.4 mph 23.0 mph N/A   Mostly Cloudy
8:55 AM 31.6 °F 20.7 °F 19.6 °F 61% 29.58 in 10.0 mi WNW 16.1 mph 21.9 mph N/A   Mostly Cloudy
9:55 AM 33.4 °F 23.1 °F 20.1 °F 58% 29.57 in 10.0 mi WNW 16.1 mph 21.9 mph N/A   Overcast
10:55 AM 35.4 °F 26.8 °F 21.0 °F 56% 29.57 in 10.0 mi WNW 12.7 mph - N/A   Overcast
11:45 AM 35.6 °F 25.9 °F 23.0 °F 60% 29.56 in 7.0 mi West 16.1 mph - N/A Rain Light Rain
11:55 AM 35.8 °F 26.9 °F 23.2 °F 60% 29.56 in 10.0 mi WNW 13.8 mph 24.2 mph 0.00 in   Mostly Cloudy
12:47 PM 35.6 °F 25.9 °F 23.0 °F 60% 29.55 in 7.0 mi WNW 16.1 mph 25.3 mph N/A Snow Light Snow
12:55 PM 35.2 °F 24.1 °F 23.5 °F 62% 29.55 in 6.0 mi NW 20.7 mph 29.9 mph 0.00 in Snow Light Snow
1:22 PM 35.6 °F 25.2 °F 24.8 °F 65% 29.55 in 7.0 mi WNW 18.4 mph 26.5 mph N/A Snow Light Snow
1:55 PM 35.8 °F 26.9 °F 23.5 °F 61% 29.55 in 7.0 mi WNW 13.8 mph 24.2 mph 0.00 in Snow Light Snow
2:55 PM 37.0 °F 27.4 °F 23.2 °F 57% 29.55 in 10.0 mi WNW 17.3 mph 21.9 mph 0.00 in Snow Light Snow
3:15 PM 37.4 °F 27.8 °F 23.0 °F 56% 29.56 in 10.0 mi WNW 17.3 mph 25.3 mph N/A   Overcast
3:55 PM 35.6 °F 24.2 °F 23.4 °F 61% 29.56 in 10.0 mi NW 21.9 mph 26.5 mph 0.00 in   Overcast
4:55 PM 34.7 °F 25.9 °F 22.5 °F 61% 29.59 in 10.0 mi WNW 12.7 mph 24.2 mph N/A   Overcast
5:11 PM 33.8 °F 23.2 °F 23.0 °F 65% 29.60 in 10.0 mi WNW 17.3 mph - N/A Snow Light Snow
5:55 PM 32.7 °F 23.4 °F 22.6 °F 66% 29.62 in 10.0 mi WNW 12.7 mph 21.9 mph 0.00 in   Overcast
6:09 PM 32.0 °F 23.0 °F 21.2 °F 64% 29.62 in 10.0 mi WNW 11.5 mph - N/A Snow Light Snow Showers
6:55 PM 32.2 °F 21.8 °F 21.7 °F 65% 29.64 in 10.0 mi WNW 15.0 mph 19.6 mph 0.00 in   Overcast
7:55 PM 31.3 °F 21.1 °F 20.1 °F 63% 29.65 in 10.0 mi WNW 13.8 mph - N/A   Scattered Clouds
8:55 PM 31.3 °F 19.9 °F 19.6 °F 62% 29.68 in 10.0 mi WNW 17.3 mph - N/A   Mostly Cloudy
9:55 PM 30.4 °F 20.0 °F 19.8 °F 65% 29.69 in 10.0 mi WNW 13.8 mph - N/A   Mostly Cloudy
10:55 PM 30.6 °F 21.8 °F 19.9 °F 65% 29.70 in 10.0 mi WNW 10.4 mph - N/A   Mostly Cloudy
11:55 PM 30.9 °F 21.2 °F 20.5 °F 65% 29.72 in 10.0 mi WNW 12.7 mph - N/A   Mostly Cloudy